Location: Chevoux
(46.3801°N, 4.9476°E)
Time: 17:23:29
(UTC+00:00)

X-37B - Pass Details

Date: 07 December 2021
Orbit: 334 x 337 km, 45.0° (Epoch: 11 January)

Event Time Altitude Azimuth Distance (km) Brightness Sun altitude
Rises 17:13:09 0° 212° (SSW) 2,093 5.2 -13.1°
Reaches altitude 10° 17:15:43 10° 186° (S) 1,261 3.5 -13.6°
Maximum altitude 17:17:23 15° 150° (SSE) 1,035 2.6 -13.8°
Enters shadow 17:18:04 14° 133° (SE) 1,075 2.5 -13.9°
